Starlink 31366

operational
NORAD ID: 59403 Int'l Des: 2024-064 Owner: SPXS Country: US Constellation: starlink
LEOCIRCULAR

Über Starlink 31366

Beschreibung wird geladen...

Live-Position

3D-Globus wird geladen...

Nächste Überflüge

Höhenverlauf

Altitude vs Time

uPlot chart will show altitude changes over time

Zweizeiliger Elementsatz

1 59403U 24064F 25351.74774593 .00000106 00000-0 13389-4 0 9994
2 59403 43.0014 158.9497 0001409 273.9763 86.0928 15.27579880 96694
Epoch: 17. Dez. 2025 • Age: 26 hours

Aktueller Status

Höhe 490.7 km
Geschwindigkeit 7.62 km/s
Subsatellitenpunkt -31.32°S, 78.43°E
Startdatum 5. Apr. 2024
Alter 1.7 years
Typ internet

Technische Details

Klassifizierung Payload
Masse 730.00 kg
Trockenmasse 700.00 kg
Gesamtmasse 730.00 kg
Länge 0.30 m
Durchmesser 4.10 m
Spannweite 29.00 m
Form Box + pan
Hersteller SPXS
Bus-Typ Starlink V2M
Phasenstatus In Orbit
Besitzer/Staat SPXS/US

Große Konstellationen

Loading constellations...